Vorticity
10 11 14 13 10 13 8 10 17 18 13 8 11 17 15 9 8 4 13 2 13 8 14 9 4 15 3 9 4 3 12 7 10 15 3 18 15 10 4 -17 15 10 -12 -5
12 12 13 14 17 14 12 11 9 15 15 11 15 11 5 6 6 11 14 9 -2 9 12 11 -2 14 8 24 12 7 10 10 2 20 21 16 3 15 2 7 -4 19 -25 -8
9 14 14 13 13 13 11 13 10 12 15 13 14 5 5 3 4 6 16 9 8 3 1 2 18 19 8 18 15 5 15 5 -3 -1 6 15 30 17 13 10 -2 -1 -9 -12
7 5 9 10 13 10 5 8 6 12 4 11 12 14 13 6 6 7 7 15 13 6 3 1 4 12 17 17 1 3 -3 8 6 5 -4 4 9 28 33 -2 6 -20 7 18
4 4 7 4 9 17 12 9 10 6 14 15 14 17 12 5 5 1 8 6 10 16 7 8 19 7 12 -7 6 9 -0 1 12 16 16 6 4 7 9 17 29 22 9 -11
5 4 6 7 6 9 13 13 14 14 7 13 17 13 8 12 4 11 3 9 7 11 9 7 14 11 11 7 -3 17 -4 7 10 20 13 14 34 30 22 2 1 9 16 3
6 5 7 6 9 9 11 16 17 14 11 14 17 12 17 10 10 5 8 9 18 9 10 6 6 11 10 9 10 12 4 21 7 5 8 19 21 13 10 12 18 23 29 31
4 2 3 5 6 11 15 17 22 15 10 12 17 13 13 19 6 6 7 8 4 13 8 7 9 8 12 5 4 8 9 8 1 1 19 -13 2 22 20 14 7 17 18 14
1 2 1 2 6 9 17 18 11 14 15 -3 16 15 15 18 20 10 7 1 5 16 7 9 11 1 7 17 14 21 9 4 1 18 4 2 10 9 8 10 34 14 13 14
2 1 0 1 5 9 15 10 11 13 23 19 16 12 7 12 19 15 24 5 4 12 8 4 7 5 6 8 8 28 8 9 3 4 -5 16 11 9 17 20 -9 -0 9 9
2 1 -0 2 4 9 14 8 11 9 30 11 24 19 15 13 19 16 12 27 25 15 6 7 17 15 5 9 -2 9 20 6 21 36 4 20 7 18 23 7 2 20 5 13
7 2 1 1 2 8 9 12 13 11 16 24 20 12 13 27 21 7 19 -5 35 12 7 9 16 8 6 5 1 25 13 -13 4 -12 10 7 3 -3 -11 1 10 1 7 7
3 6 3 1 -0 5 7 11 14 12 9 6 19 21 21 21 19 21 16 16 -7 18 11 -6 3 2 24 2 22 2 4 2 -1 6 22 19 17 -9 -0 5 9 11 18 8
5 4 7 1 1 1 4 12 17 12 8 10 6 9 15 14 18 24 17 14 19 2 -7 22 5 20 12 9 3 1 5 8 8 8 7 14 15 14 9 3 14 17 7 6
2 3 7 3 2 4 5 6 16 11 19 2 6 9 7 11 17 21 15 18 15 17 13 0 -9 -6 -3 -2 -4 -1 13 18 2 1 5 1 -1 -3 6 7 4 5 9 14
0 5 7 7 3 4 8 7 14 15 17 4 13 -3 7 7 1 18 24 20 22 15 10 17 20 6 -4 2 -7 -5 -4 3 2 6 4 11 10 4 10 4 -1 3 10 11
5 4 6 9 6 4 8 9 14 20 12 15 12 9 3 4 14 7 9 12 27 23 21 23 23 21 22 10 8 22 41 30 34 23 15 21 14 11 6 1 18 11 13 11
3 3 4 8 10 5 10 5 11 15 19 19 9 7 11 1 13 11 10 12 15 7 12 7 16 20 26 27 28 -3 -1 2 -1 44 69 4 1 16 16 12 11 8 14 15
4 4 4 9 7 5 17 4 9 7 17 13 9 12 9 2 5 10 9 11 10 13 13 6 16 18 12 1 -1 12 16 9 8 21 54 1 -11 29 22 10 21 17 6 9
4 3 6 13 3 9 22 3 9 5 7 8 8 8 6 10 9 9 18 12 10 16 11 13 20 21 7 7 6 5 5 21 26 12 10 9 15 20 4 -8 21 13 9 13
7 6 8 9 6 17 17 6 14 9 9 3 5 7 8 7 11 11 23 6 13 16 9 15 11 7 3 -1 8 6 8 24 20 18 12 -0 14 11 16 12 13 11 14 3
7 12 8 8 15 20 8 8 7 13 7 3 7 7 8 16 20 18 15 13 13 8 10 11 13 -1 7 2 2 7 23 21 23 26 25 15 13 7 5 -1 37 10 1 13
13 14 17 14 10 13 11 11 6 9 5 8 10 8 18 9 14 12 16 12 9 14 14 9 2 7 4 5 11 9 12 15 17 12 14 22 19 14 14 10 13 17 26 25
16 17 14 6 14 19 14 -3 10 4 9 12 10 9 13 9 26 13 9 11 13 13 10 1 4 10 10 7 11 8 9 10 17 10 13 19 7 20 17 16 19 15 18 27
11 15 16 19 12 14 -6 0 10 13 10 10 9 14 20 15 12 13 9 14 13 10 0 1 4 4 6 23 12 9 10 18 19 14 11 13 10 13 8 14 14 15 12 11
7 12 4 6 17 3 -1 3 8 9 8 10 15 13 15 17 14 13 5 9 6 -1 4 13 17 24 16 7 11 9 6 5 13 19 16 13 15 14 6 16 16 9 5 5
7 -2 -3 28 15 8 11 4 12 8 8 9 19 16 10 9 19 11 14 -0 5 -1 8 -1 -12 -12 -11 -4 9 11 5 5 3 6 14 15 12 12 13 11 16 17 3 8
Height
3065 3060 3056 3052 3049 3047 3044 3040 3037 3033 3032 3032 3029 3030 3029 3029 3030 3033 3036 3037 3037 3036 3035 3038 3040 3040 3042 3043 3046 3049 3052 3054 3059 3062 3063 3066 3069 3071 3074 3076 3077 3076 3077 3068
3063 3059 3055 3051 3047 3045 3042 3039 3036 3032 3031 3031 3031 3029 3029 3031 3032 3031 3032 3034 3037 3039 3039 3039 3039 3040 3041 3043 3046 3049 3051 3053 3057 3062 3065 3063 3064 3065 3068 3072 3073 3070 3076 3064
3062 3058 3054 3050 3046 3043 3041 3037 3034 3031 3030 3030 3030 3030 3030 3030 3031 3032 3034 3035 3038 3039 3040 3040 3039 3040 3042 3043 3045 3047 3049 3049 3051 3054 3054 3056 3057 3057 3061 3065 3066 3068 3057 3060
3060 3057 3053 3050 3045 3042 3040 3037 3034 3031 3029 3028 3028 3030 3030 3030 3032 3032 3031 3033 3033 3037 3039 3041 3041 3041 3042 3044 3046 3048 3050 3050 3051 3052 3052 3053 3052 3053 3055 3057 3060 3058 3057 3054
3058 3056 3053 3049 3044 3041 3039 3037 3034 3029 3027 3026 3027 3029 3029 3031 3031 3031 3032 3033 3035 3036 3038 3039 3040 3041 3042 3043 3045 3046 3048 3050 3051 3051 3050 3050 3050 3051 3051 3051 3051 3052 3050 3048
3056 3054 3052 3048 3044 3040 3036 3035 3031 3028 3025 3024 3025 3026 3027 3029 3030 3031 3031 3032 3033 3035 3036 3037 3038 3040 3041 3043 3045 3045 3047 3048 3048 3048 3048 3048 3047 3043 3044 3044 3045 3046 3045 3042
3055 3053 3051 3047 3042 3039 3036 3032 3028 3025 3023 3022 3023 3022 3023 3025 3027 3029 3029 3030 3031 3034 3034 3035 3037 3039 3040 3041 3042 3044 3044 3046 3047 3047 3046 3047 3040 3038 3039 3039 3039 3039 3037 3036
3052 3051 3049 3045 3041 3038 3033 3029 3027 3024 3022 3021 3019 3019 3019 3021 3023 3025 3027 3028 3030 3030 3031 3034 3035 3037 3038 3038 3039 3041 3043 3043 3045 3045 3044 3039 3037 3035 3036 3035 3036 3035 3033 3032
3050 3049 3046 3043 3040 3036 3031 3026 3024 3021 3019 3018 3016 3015 3016 3017 3019 3022 3023 3025 3028 3030 3030 3032 3031 3033 3035 3035 3035 3036 3039 3041 3044 3043 3044 3041 3034 3033 3032 3031 3031 3031 3030 3028
3048 3046 3043 3042 3037 3033 3028 3025 3022 3018 3015 3013 3013 3012 3013 3014 3016 3017 3018 3021 3024 3026 3027 3029 3031 3031 3033 3034 3033 3033 3035 3037 3038 3040 3041 3036 3033 3033 3032 3032 3034 3028 3027 3025
3045 3043 3042 3039 3036 3032 3028 3025 3021 3017 3013 3012 3010 3009 3010 3010 3012 3012 3015 3020 3020 3021 3025 3027 3028 3030 3030 3030 3031 3030 3032 3034 3034 3036 3037 3034 3030 3030 3031 3030 3028 3026 3025 3023
3042 3040 3040 3037 3034 3031 3027 3024 3020 3016 3015 3013 3012 3009 3009 3009 3009 3010 3013 3015 3016 3019 3021 3023 3026 3027 3027 3028 3029 3029 3031 3030 3031 3032 3030 3029 3029 3029 3028 3027 3026 3025 3024 3022
3039 3038 3038 3034 3033 3029 3027 3023 3020 3017 3016 3015 3012 3010 3009 3007 3007 3008 3011 3013 3015 3017 3018 3020 3022 3025 3025 3025 3025 3027 3027 3027 3028 3028 3027 3026 3027 3027 3026 3025 3024 3023 3022 3021
3035 3037 3036 3033 3032 3029 3026 3023 3020 3019 3018 3017 3015 3012 3010 3009 3007 3008 3009 3011 3013 3015 3017 3018 3019 3020 3022 3022 3023 3023 3025 3025 3023 3023 3023 3023 3023 3023 3022 3022 3021 3020 3019 3018
3031 3034 3034 3033 3032 3029 3027 3024 3021 3019 3021 3019 3017 3015 3013 3010 3009 3008 3008 3009 3009 3011 3013 3015 3017 3018 3019 3018 3018 3017 3020 3020 3019 3017 3019 3017 3018 3019 3019 3018 3018 3017 3016 3015
3028 3032 3032 3032 3031 3029 3027 3025 3023 3020 3019 3018 3018 3018 3015 3013 3011 3009 3008 3007 3007 3007 3008 3010 3012 3013 3015 3013 3010 3012 3014 3014 3012 3009 3010 3009 3011 3012 3013 3013 3013 3012 3012 3011
3027 3028 3028 3030 3029 3028 3027 3026 3023 3019 3019 3018 3018 3018 3017 3014 3012 3011 3009 3007 3006 3005 3006 3006 3007 3008 3008 3005 3003 3006 3007 3004 3002 2998 2999 3000 3002 3004 3005 3006 3006 3006 3006 3006
3023 3024 3025 3027 3026 3026 3025 3024 3021 3019 3018 3018 3018 3018 3018 3015 3013 3011 3009 3008 3007 3006 3006 3005 3004 3003 3003 3001 2999 3000 2999 2998 2995 2989 2987 2991 2995 2996 2997 2998 2999 3000 3000 3000
3019 3021 3023 3023 3023 3023 3022 3021 3020 3018 3021 3018 3018 3018 3017 3015 3012 3010 3008 3007 3006 3005 3004 3003 3003 3001 3000 3000 2999 2997 2995 2992 2989 2986 2982 2986 2989 2990 2991 2992 2992 2993 2993 2993
3014 3018 3020 3019 3019 3019 3020 3019 3019 3018 3018 3017 3017 3017 3016 3016 3012 3009 3009 3007 3004 3002 3003 3002 2999 2998 2998 2997 2996 2993 2991 2987 2985 2985 2985 2985 2984 2984 2985 2986 2986 2986 2987 2987
3012 3014 3015 3016 3015 3016 3016 3017 3017 3017 3017 3016 3016 3016 3014 3012 3011 3010 3009 3007 3005 3003 3004 3002 2998 2995 2995 2994 2993 2991 2987 2984 2982 2981 2981 2981 2981 2981 2980 2981 2981 2981 2981 2981
3009 3011 3011 3012 3012 3012 3014 3013 3014 3014 3015 3015 3014 3014 3011 3009 3008 3007 3008 3007 3006 3002 3001 2999 2995 2993 2992 2992 2990 2987 2984 2980 2978 2977 2977 2977 2977 2977 2976 2976 2974 2975 2975 2974
3005 3007 3008 3009 3009 3009 3009 3010 3011 3012 3012 3012 3012 3011 3010 3008 3007 3006 3006 3005 3004 3003 3000 2997 2993 2991 2990 2989 2987 2985 2982 2979 2977 2976 2974 2973 2973 2972 2972 2970 2969 2969 2969 2969
3001 3002 3004 3005 3005 3005 3006 3008 3009 3010 3008 3008 3009 3008 3009 3006 3005 3004 3004 3003 3002 2999 2997 2994 2991 2990 2988 2987 2985 2982 2980 2978 2976 2974 2973 2971 2970 2968 2967 2966 2965 2964 2964 2965
2998 2999 2999 3000 3001 3002 3004 3005 3005 3005 3004 3004 3005 3005 3004 3002 3002 3002 3001 3000 2996 2993 2990 2990 2989 2987 2985 2983 2981 2980 2978 2975 2973 2972 2971 2969 2968 2967 2967 2966 2965 2964 2964 2964
2996 2997 2999 2999 2999 3000 3000 3001 3001 3001 3000 3001 3001 3001 2999 2998 2999 2998 2997 2996 2992 2989 2988 2986 2984 2983 2982 2981 2980 2979 2976 2974 2972 2970 2968 2967 2966 2965 2965 2965 2964 2963 2963 2964
2992 2994 2995 2995 2996 2996 2996 2997 2997 2996 2996 2997 2998 2999 2997 2996 2995 2992 2990 2988 2988 2987 2985 2984 2982 2980 2979 2978 2977 2976 2974 2972 2970 2969 2967 2966 2965 2964 2963 2963 2962 2961 2961 2961